When you browse on this site, cookies collect data to enhance your experience and personalize the content and advertising you see.
Visit our Privacy Policy to learn more. By continuing to use the site, you agree to this use of cookies and data.
  • In Netherlands
  • List of Countries
  • For 7 days
  • Water Temperature
  • Satellite Maps
  • Weather Map
  • Weather Widgets
  • user-avatar
    Login

    Hourly Weather Verhneshirokinskiy

    Today, 10 December, Monday

    Time Temperature Precipitation Wind Pressure Humidity
    00:00 0°C° 0.1 mm 5 mps 750 mmHg 87%
    01:00 0°C° 0 mm 5 mps 750 mmHg 87%
    02:00 0°C° 0 mm 5 mps 749 mmHg 86%
    03:00 0°C° 0 mm 3 mps 749 mmHg 90%
    04:00 -1°C° 0 mm 4 mps 749 mmHg 90%
    05:00 -1°C° 0 mm 5 mps 749 mmHg 90%
    06:00 -1°C° 0 mm 5 mps 748 mmHg 90%
    07:00 -1°C° 0 mm 5 mps 748 mmHg 90%
    08:00 -1°C° 0 mm 5 mps 748 mmHg 90%
    09:00 -2°C° 0 mm 6 mps 748 mmHg 91%
    10:00 -2°C° 0.1 mm 6 mps 748 mmHg 90%
    11:00 -2°C° 0.1 mm 6 mps 748 mmHg 90%
    12:00 -1°C° 0.1 mm 6 mps 747 mmHg 90%
    13:00 -1°C° 0.5 mm 6 mps 747 mmHg 90%
    14:00 -1°C° 0.5 mm 7 mps 747 mmHg 90%
    15:00 -1°C° 0.5 mm 7 mps 746 mmHg 90%
    16:00 +1°C° 1.1 mm 6 mps 747 mmHg 91%
    17:00 +1°C° 1.1 mm 6 mps 747 mmHg 92%
    18:00 +1°C° 1.1 mm 6 mps 747 mmHg 93%
    19:00 +1°C° 0.4 mm 6 mps 747 mmHg 94%
    20:00 +1°C° 0.4 mm 6 mps 747 mmHg 95%
    21:00 +1°C° 0.4 mm 5 mps 747 mmHg 95%
    22:00 +2°C° 0.3 mm 5 mps 747 mmHg 96%
    23:00 +2°C° 0.3 mm 5 mps 747 mmHg 97%

    Tomorrow, 11 December, Tuesday

    Time Temperature Precipitation Wind Pressure Humidity
    00:00 +2°C° 0.3 mm 5 mps 747 mmHg 97%
    01:00 +3°C° 0.1 mm 4 mps 747 mmHg 97%
    02:00 +3°C° 0.1 mm 4 mps 747 mmHg 98%
    03:00 +3°C° 0.1 mm 4 mps 747 mmHg 98%
    04:00 +3°C° 0 mm 3 mps 747 mmHg 98%
    05:00 +3°C° 0 mm 3 mps 747 mmHg 98%
    06:00 +3°C° 0 mm 3 mps 746 mmHg 98%
    07:00 +3°C° 0 mm 3 mps 747 mmHg 97%
    08:00 +3°C° 0 mm 3 mps 747 mmHg 97%
    09:00 +3°C° 0 mm 4 mps 747 mmHg 96%
    10:00 +3°C° 0.1 mm 4 mps 746 mmHg 95%
    11:00 +2°C° 0.1 mm 5 mps 746 mmHg 94%
    12:00 +2°C° 0.1 mm 5 mps 746 mmHg 92%
    13:00 +2°C° 0.4 mm 6 mps 746 mmHg 93%
    14:00 +2°C° 0.4 mm 6 mps 745 mmHg 93%
    15:00 +2°C° 0.4 mm 6 mps 745 mmHg 93%
    16:00 +2°C° 0.6 mm 6 mps 745 mmHg 93%
    17:00 +2°C° 0.6 mm 6 mps 744 mmHg 93%
    18:00 +2°C° 0.6 mm 5 mps 744 mmHg 93%
    19:00 +3°C° 0.3 mm 6 mps 744 mmHg 93%
    20:00 +3°C° 0.3 mm 7 mps 744 mmHg 92%
    21:00 +2°C° 0.3 mm 8 mps 743 mmHg 92%
    22:00 +3°C° 0.2 mm 9 mps 743 mmHg 92%
    23:00 +3°C° 0.2 mm 9 mps 743 mmHg 92%

    Day after tomorrow, 12 December, Wednesday

    Time Temperature Precipitation Wind Pressure Humidity
    00:00 +3°C° 0.2 mm 9 mps 742 mmHg 92%
    01:00 +3°C° 0.1 mm 9 mps 743 mmHg 91%
    02:00 +4°C° 0.1 mm 8 mps 743 mmHg 89%
    03:00 +5°C° 0.1 mm 8 mps 743 mmHg 88%
    04:00 +4°C° 0.1 mm 8 mps 743 mmHg 86%
    05:00 +4°C° 0.1 mm 8 mps 743 mmHg 85%
    06:00 +4°C° 0.1 mm 8 mps 742 mmHg 84%
    07:00 +2°C° 0.1 mm 8 mps 743 mmHg 83%
    08:00 +2°C° 0.1 mm 8 mps 744 mmHg 82%
    09:00 +2°C° 0.1 mm 9 mps 744 mmHg 81%
    10:00 +2°C° 0.1 mm 9 mps 745 mmHg 79%
    11:00 +2°C° 0.1 mm 10 mps 745 mmHg 78%
    12:00 +2°C° 0.1 mm 10 mps 745 mmHg 76%
    13:00 +2°C° 0 mm 10 mps 746 mmHg 76%
    14:00 +2°C° 0 mm 10 mps 746 mmHg 75%
    15:00 +2°C° 0 mm 9 mps 746 mmHg 74%
    16:00 +1°C° 0 mm 8 mps 747 mmHg 76%
    17:00 +2°C° 0 mm 7 mps 747 mmHg 78%
    18:00 +1°C° 0 mm 6 mps 748 mmHg 79%
    19:00 +1°C° 0 mm 6 mps 748 mmHg 81%
    20:00 +1°C° 0 mm 5 mps 749 mmHg 82%
    21:00 0°C° 0 mm 5 mps 749 mmHg 84%
    22:00 0°C° 0 mm 4 mps 750 mmHg 85%
    23:00 0°C° 0 mm 4 mps 750 mmHg 85%

    13 December, Thursday

    Time Temperature Precipitation Wind Pressure Humidity
    00:00 0°C° 0 mm 4 mps 750 mmHg 86%
    01:00 +1°C° 0 mm 3 mps 751 mmHg 86%
    02:00 0°C° 0 mm 3 mps 751 mmHg 86%
    03:00 0°C° 0 mm 3 mps 751 mmHg 87%
    04:00 0°C° 0 mm 3 mps 752 mmHg 87%
    05:00 0°C° 0 mm 3 mps 752 mmHg 87%
    06:00 0°C° 0 mm 3 mps 752 mmHg 88%
    07:00 +1°C° 0 mm 3 mps 753 mmHg 88%
    08:00 +1°C° 0 mm 3 mps 753 mmHg 88%
    09:00 +1°C° 0 mm 3 mps 754 mmHg 88%
    10:00 +1°C° 0 mm 4 mps 754 mmHg 81%
    11:00 +3°C° 0 mm 4 mps 754 mmHg 74%
    12:00 +3°C° 0 mm 5 mps 754 mmHg 66%
    13:00 +3°C° 0 mm 5 mps 754 mmHg 66%
    14:00 +3°C° 0 mm 5 mps 754 mmHg 65%
    15:00 +4°C° 0 mm 4 mps 754 mmHg 64%
    16:00 +3°C° 0 mm 4 mps 754 mmHg 69%
    17:00 +2°C° 0 mm 3 mps 754 mmHg 75%
    18:00 +1°C° 0 mm 3 mps 755 mmHg 80%
    19:00 +1°C° 0 mm 3 mps 755 mmHg 82%
    20:00 +1°C° 0 mm 3 mps 755 mmHg 84%
    21:00 +1°C° 0 mm 3 mps 755 mmHg 86%
    22:00 +1°C° 0 mm 3 mps 755 mmHg 87%
    23:00 +1°C° 0 mm 3 mps 755 mmHg 88%

    14 December, Friday

    Time Temperature Precipitation Wind Pressure Humidity
    00:00 +1°C° 0 mm 3 mps 755 mmHg 89%
    01:00 0°C° 0 mm 3 mps 755 mmHg 90%
    02:00 0°C° 0 mm 3 mps 755 mmHg 91%
    03:00 0°C° 0 mm 3 mps 755 mmHg 92%
    04:00 0°C° 0 mm 3 mps 755 mmHg 92%
    05:00 +1°C° 0 mm 2 mps 755 mmHg 92%
    06:00 +1°C° 0 mm 2 mps 755 mmHg 92%
    07:00 +1°C° 0 mm 2 mps 756 mmHg 92%
    08:00 +1°C° 0 mm 2 mps 756 mmHg 92%
    09:00 +1°C° 0 mm 2 mps 756 mmHg 92%
    10:00 +2°C° 0 mm 2 mps 756 mmHg 87%
    11:00 +3°C° 0 mm 2 mps 757 mmHg 82%
    12:00 +4°C° 0 mm 2 mps 757 mmHg 78%
    13:00 +5°C° 0.1 mm 2 mps 757 mmHg 77%
    14:00 +6°C° 0.1 mm 1 mps 757 mmHg 76%
    15:00 +6°C° 0.1 mm 1 mps 757 mmHg 76%
    16:00 +5°C° 0 mm 1 mps 757 mmHg 78%
    17:00 +4°C° 0 mm 1 mps 757 mmHg 81%
    18:00 +3°C° 0 mm 0 mps 758 mmHg 84%
    19:00 +3°C° 0 mm 1 mps 758 mmHg 85%
    20:00 +3°C° 0 mm 1 mps 758 mmHg 87%
    21:00 +3°C° 0 mm 1 mps 758 mmHg 88%
    22:00 +2°C° 0 mm 1 mps 758 mmHg 89%
    23:00 +2°C° 0 mm 1 mps 758 mmHg 89%

    15 December, Saturday

    Time Temperature Precipitation Wind Pressure Humidity
    00:00 +2°C° 0 mm 1 mps 758 mmHg 90%
    01:00 +1°C° 0 mm 2 mps 758 mmHg 90%
    02:00 +1°C° 0 mm 2 mps 758 mmHg 91%
    03:00 +1°C° 0 mm 2 mps 759 mmHg 91%
    04:00 -1°C° 0 mm 2 mps 759 mmHg 92%
    05:00 -1°C° 0 mm 2 mps 759 mmHg 92%
    06:00 -1°C° 0 mm 2 mps 759 mmHg 93%
    07:00 -1°C° 0 mm 2 mps 760 mmHg 93%
    08:00 -1°C° 0 mm 2 mps 760 mmHg 93%
    09:00 -1°C° 0 mm 2 mps 760 mmHg 93%
    10:00 +1°C° 0 mm 2 mps 761 mmHg 90%
    11:00 0°C° 0 mm 3 mps 761 mmHg 87%
    12:00 +1°C° 0 mm 3 mps 761 mmHg 84%
    13:00 +1°C° 0.1 mm 3 mps 762 mmHg 84%
    14:00 0°C° 0.1 mm 3 mps 762 mmHg 83%
    15:00 0°C° 0.1 mm 3 mps 762 mmHg 82%
    16:00 0°C° 0 mm 3 mps 762 mmHg 83%
    17:00 -1°C° 0 mm 3 mps 763 mmHg 84%
    18:00 -1°C° 0 mm 3 mps 763 mmHg 85%
    19:00 -2°C° 0 mm 3 mps 763 mmHg 84%
    20:00 -2°C° 0 mm 3 mps 764 mmHg 83%
    21:00 -2°C° 0 mm 3 mps 764 mmHg 82%
    22:00 -4°C° 0 mm 3 mps 764 mmHg 82%
    23:00 -4°C° 0 mm 3 mps 764 mmHg 82%
    Show more